This is the latest recevied weather packets stored in our database for station/object OE6JUE. If no packets are shown the sender has not sent any weather packets the latest 10 day(s).
| Time | Temp. | Humidity | Pressure | Rain* | Wind** | Luminosity | Snow |
|---|---|---|---|---|---|---|---|
| 1778241381 | 22.78° C | 35% | 1017.7 hPa | 0 mm | - | - | - |
| 1778241082 | 22.22° C | 38% | 1017.9 hPa | 0 mm | - | - | - |
| 1778240781 | 22.22° C | 41% | 1017.8 hPa | 0 mm | - | - | - |
| 1778240483 | 22.22° C | 40% | 1018 hPa | 0 mm | - | - | - |
| 1778240181 | 22.22° C | 42% | 1017.9 hPa | 0 mm | - | - | - |
| 1778239882 | 21.67° C | 41% | 1017.7 hPa | 0 mm | - | - | - |
| 1778239581 | 21.67° C | 42% | 1017.9 hPa | 0 mm | - | - | - |
| 1778239281 | 21.67° C | 42% | 1017.9 hPa | 0 mm | - | - | - |
| 1778238982 | 21.67° C | 42% | 1017.9 hPa | 0 mm | - | - | - |
| 1778238681 | 21.67° C | 43% | 1017.9 hPa | 0 mm | - | - | - |
| 1778238381 | 21.67° C | 41% | 1018 hPa | 0 mm | - | - | - |
| 1778238081 | 21.67° C | 44% | 1018 hPa | - | - | - | - |
| 1778237781 | 21.67° C | 44% | 1018 hPa | 0 mm | - | - | - |
| 1778237482 | 21.67° C | 42% | 1018.1 hPa | 0 mm | - | - | - |
| 1778237181 | 21.67° C | 43% | 1018.1 hPa | 0 mm | - | - | - |
| 1778236881 | 21.11° C | 43% | 1018.1 hPa | 0 mm | - | - | - |
| 1778236581 | 21.11° C | 46% | 1018.2 hPa | 0 mm | - | - | - |
| 1778236281 | 20.56° C | 44% | 1018.3 hPa | 0 mm | - | - | - |
| 1778235981 | 20.56° C | 49% | 1018.1 hPa | 0 mm | - | - | - |
| 1778235682 | 20.56° C | 48% | 1018.3 hPa | 0 mm | - | - | - |
| 1778235382 | 20.56° C | 50% | 1018.3 hPa | 0 mm | - | - | - |
| 1778235081 | 20.56° C | 47% | 1018.4 hPa | 0 mm | - | - | - |
| 1778234781 | 20.56° C | 50% | 1018.5 hPa | 0 mm | - | - | - |
| 1778234481 | 20.56° C | 50% | 1018.3 hPa | - | - | - | - |
| 1778234181 | 20.56° C | 50% | 1018.5 hPa | 0 mm | - | - | - |
* Rain latest hour (hover to see other rain measurements)
** Current wind speed in m/s (hover to see current wind gust speed)